User: anonymous   Login
Location: Terra Rouge Observatory
(46.0000°N, 62.7500°W)
Time: 15:10:06
(UTC-03:00)
Language:

NOSS 3-1 (A) - Orbit

View from above orbital plane
View from above orbital plane
View from above satellite
View from above satellite

Ground track
Ground track

The orbit data is extracted from the following two-line orbital elements,

1 26905U 01040A   16122.82378836 0.00000000  00000-0  00000-0 0    07
2 26905  63.4206   3.6222 0332000 357.5060   2.4940 13.40736794    07
Epoch (UTC): 01 May 2016 19:46:15
Eccentricity: 0.0332000
inclination: 63.4206°
perigee height: 858 km
apogee height: 1355 km
right ascension of ascending node: 3.6222°
argument of perigee: 357.5060°
revolutions per day: 13.40736794
mean anomaly at epoch: 2.4940°
orbit number at epoch: 0

The dashed part of the orbit path shows where the satellite is in the earth's shadow,  

DLR